Location: St. Louis
(38.6270°N, 90.1994°W)
Time: 10:49:54
(UTC-06:00)

S-56A Canister/Altair - Pass Details

Date: 03 December 2021
Orbit: 634 x 2499 km, 38.9° (Epoch: 26 January)

Event Time Altitude Azimuth Distance (km) Brightness Sun altitude
Rises 20:50:57 0° 196° (SSW) 5,918 12.1 -48.4°
Enters shadow 20:55:45 - 185° (S) 4,835 11.5 -49.3°
Reaches altitude 10° 20:56:36 10° 182° (S) 4,654 - -49.5°
Maximum altitude 21:04:27 20° 143° (SE) 3,451 - -51.0°
Drops below altitude 10° 21:10:48 10° 102° (ESE) 3,673 - -52.2°
Sets 21:14:29 0° 85° (E) 4,337 - -52.9°
